星链-4448 (STARLINK-4448 )

导读 | 豆包AI

STARLINK-4448是美国SpaceX公司星链(Starlink)星座中的低轨互联网卫星,于2022年8月12日发射升空,属于星链星座组网的组成部分。它采用平板设计,配备相控阵天线与激光星间链路,可提供高速低延迟的宽带服务,帮助实现全球覆盖,尤其是偏远地区的互联网接入,推动了卫星互联网普及进程。

基本信息
目录编号:
53504
目录名称:
STARLINK-4448
国际标识:
2022-099AR
轨道中心:
EARTH
卫星名称:
星链-4448
卫星全名:
星链-4448 (STARLINK-4448 )
卫星状态:
在轨 (已飞行1311 天)
发射日期:
2022-08-12 UTC
国别 :
美国 (US)
星等 :
--
轨道信息
数据来源 国际轨道数据
星历时间: 2026-03-15T06:00:02+0800
8小时前
查看轨道信息
半长轴: 6934.481km
偏心率: 0.000236
轨道倾角: 97.603°
近地点辐角 73.657°
升交点赤经 195.339°
平近点角 169.889°
近地点: 554.707km
远地点: 557.981km
周期: 95.781分钟
每日圈数: 15.034252
详细信息
固有亮度:
5
最大亮度:
2.5
卫星平台:
Starlink v1.5
覆盖范围:
全球
运营商:
太空探索技术公司
运营商所在国:
美国
制造商(研发单位):
太空探索技术公司
制造商所在国:
美国
使用方式:
暂无
卫星简介
星链(Starlink)计划是由太空探索技术公司(SpaceX)提出的一个巨型低轨卫星互联网星座项目,计划在2019年至2024年间在太空搭建由约1.2万颗卫星组成的“星链”网络,其中1584颗将部署在地球上空550千米处的近地轨道,并从2020年开始工作。该卫星仍在工作。
2D轨道图
3D轨道图
轨道高度分析图
轨道倾角分析图
轨道综合分析图
查看轨道综合分析图